Simultaneous Nadir Overpasses (SNOs) Predictions

Prediction of SNOs between AQUA and NPP Satellite Orbit:

Table of predicted SNOs for the next 14.0 days since TLE Epoch: 9/6/2012
Index Date (AQUA) Time (AQUA) Lat,Lon (AQUA) SZA (AQUA ) Date (NPP) Time (NPP) Lat,Lon (NPP) SZA (NPP ) Distance(km) Time Diff (sec)
1 09/07/2012 14:54:17 -76.31, 16.28 88.89 09/07/2012 14:53:19 -76.30, 16.19 88.82 2.59 58
2 09/07/2012 15:43:20 77.37,-172.26 89.88 09/07/2012 15:43:39 77.37,-172.23 89.85 0.79 19
3 09/10/2012 07:10:34 -76.70, 133.49 88.40 09/10/2012 07:10:04 -76.69, 133.42 88.36 1.72 30
4 09/10/2012 07:59:39 77.64, -55.23 90.48 09/10/2012 08:00:26 77.65, -55.16 90.43 1.93 47
5 09/12/2012 22:41:05 65.12, 61.54 104.50 09/12/2012 22:39:52 65.34, 60.20 104.81 66.56 73
6 09/12/2012 23:26:51 -76.99,-109.58 87.79 09/12/2012 23:26:50 -76.98,-109.67 87.76 2.58 1
7 09/13/2012 00:14:16 81.35, 90.58 85.55 09/13/2012 00:15:29 81.01, 91.48 85.33 40.69 73
8 09/15/2012 14:53:52 76.72,-162.26 93.48 09/15/2012 14:53:03 76.73,-162.20 93.50 1.61 49
9 09/15/2012 15:43:04 -77.45, 8.12 87.38 09/15/2012 15:43:32 -77.45, 8.16 87.41 0.87 28
10 09/18/2012 07:10:06 77.10, -44.98 94.00 09/18/2012 07:09:47 77.11, -44.87 93.99 2.87 19




NCC Satellite Simultaneous Nadir Overpasses (SNOs) Prediction Service
